Simultaneous Nadir Overpasses (SNOs) Predictions

Prediction of SNOs between GOES-15 and METOP-B Satellite Orbit:

Table of predicted SNOs for the next 14.0 days since TLE Epoch: 7/30/2022
Index Date Time (GOES-15) GOES-15 Lat,Lon METOP-B Lat,Lon Distance(km) Time Diff (sec)
1 07/31/2022 06:08:57 0.04,-128.02 -0.24,-129.37 153.82 80
2 08/01/2022 05:45:38 0.08,-127.98 0.89,-124.38 411.16 80
3 08/02/2022 18:07:08 -0.03,-127.98 0.19,-128.92 107.83 80
4 08/03/2022 17:43:48 -0.07,-127.95 -0.94,-123.93 457.17 80
5 08/05/2022 06:05:27 0.02,-127.85 -0.15,-128.51 75.42 80
6 08/06/2022 05:42:07 0.05,-127.82 0.98,-123.52 488.81 80
7 08/07/2022 18:03:39 0.00,-127.79 0.04,-128.08 32.01 80
8 08/10/2022 05:59:17 -0.01,-127.65 0.01,-127.67 3.40 80
9 08/12/2022 17:57:28 0.02,-127.57 -0.07,-127.22 39.68 80
